Jacksonville Craig, FL

7:42 PM EST on February 23, 2018 (GMT -0500)
Craig Municipal

Weather History for KCRG - August, 2013

Change the Weather History Date:

Sunday, August 11, 2013

  Actual Average Record
Temperature  
Mean Temperature 86 °F -  
Max Temperature 93 °F 87 °F 100 °F (2011)
Min Temperature 78 °F 71 °F 66 °F (2002)
Cooling Degree Days 20    
Growing Degree Days 36 (Base 50)    
Moisture  
Dew Point 74 °F    
Average Humidity 71    
Maximum Humidity 88    
Minimum Humidity 50    
Precipitation  
Precipitation 0.00 in - - ()
Sea Level Pressure  
Sea Level Pressure 30.14 in    
Wind  
Wind Speed 5 mph (SSE)    
Max Wind Speed 12 mph    
Max Gust Speed -    
Visibility 10 miles    
Events      
Averages and records for this station are not official NWS values.
T = Trace of Precipitation, MM = Missing Value Source: NWS Daily Summary

Daily Weather History Graph

Daily Weather History Graph

Search for Another Location

Airport or City:

Trip Planner

Search our weather history database for the weather conditions in past years. The results will help you decide how hot, cold, wet, or windy it might be!

Date:

Astronomy

Aug. 11, 2013 Rise Set
Actual Time 6:50 AM EDT 8:11 PM EDT
Civil Twilight 6:25 AM EDT 8:36 PM EDT
Nautical Twilight 5:54 AM EDT 9:06 PM EDT
Astronomical Twilight 5:23 AM EDT 9:38 PM EDT
Moon 11:12 AM EDT (8/11) 10:52 PM EDT (8/11)
Length of Visible Light 14h 11m
Length of Day
13h 20m
Waxing Crescent, 22% of the Moon is Illuminated
Aug 11
Waxing Crescent
Aug 14
First Quarter
Aug 20
Full
Aug 28
Last Quarter
Sep 5
New

Hourly Weather History & Observations

Time (EDT) Temp. Heat Index Dew Point Humidity Pressure Visibility Wind Dir Wind Speed Gust Speed Precip Events Conditions
12:53 AM 81.0 °F 87.3 °F 75.9 °F 85% 30.15 in 10.0 mi SSE 4.6 mph - N/A   Clear
1:53 AM 81.0 °F 87.3 °F 75.9 °F 85% 30.14 in 10.0 mi South 4.6 mph - N/A   Clear
2:53 AM 80.1 °F 85.4 °F 75.9 °F 87% 30.13 in 10.0 mi South 4.6 mph - N/A   Clear
3:53 AM 80.1 °F 85.4 °F 75.9 °F 87% 30.13 in 10.0 mi South 4.6 mph - N/A   Clear
4:53 AM 80.1 °F 85.1 °F 75.0 °F 85% 30.13 in 10.0 mi South 4.6 mph - N/A   Clear
5:53 AM 79.0 °F - 75.0 °F 88% 30.13 in 10.0 mi SSW 3.5 mph - N/A   Clear
6:53 AM 78.1 °F - 73.9 °F 87% 30.15 in 10.0 mi Calm Calm - N/A   Clear
7:53 AM 80.1 °F 85.1 °F 75.0 °F 85% 30.16 in 10.0 mi Calm Calm - N/A   Clear
8:53 AM 82.9 °F 90.8 °F 75.9 °F 79% 30.18 in 10.0 mi WSW 5.8 mph - N/A   Partly Cloudy
9:53 AM 86.0 °F 93.8 °F 73.9 °F 67% 30.18 in 10.0 mi SW 6.9 mph - N/A   Clear
10:53 AM 88.0 °F 94.7 °F 72.0 °F 59% 30.18 in 10.0 mi WSW 5.8 mph - N/A   Clear
11:53 AM 89.1 °F 96.0 °F 72.0 °F 57% 30.17 in 10.0 mi South 5.8 mph - N/A   Clear
12:53 PM 91.9 °F 98.4 °F 71.1 °F 50% 30.16 in 10.0 mi Calm Calm - N/A   Clear
1:53 PM 93.0 °F 104.6 °F 75.0 °F 56% 30.14 in 10.0 mi East 5.8 mph - N/A   Clear
2:53 PM 91.9 °F 103.2 °F 75.0 °F 58% 30.13 in 10.0 mi ESE 6.9 mph - N/A   Clear
3:53 PM 91.0 °F 100.4 °F 73.9 °F 57% 30.11 in 10.0 mi ESE 9.2 mph - N/A   Clear
4:53 PM 91.0 °F 97.6 °F 71.1 °F 52% 30.10 in 10.0 mi SSE 9.2 mph - N/A   Clear
5:53 PM 90.0 °F 94.5 °F 69.1 °F 50% 30.09 in 10.0 mi ESE 8.1 mph - N/A   Clear
6:53 PM 88.0 °F 93.8 °F 71.1 °F 57% 30.09 in 10.0 mi SE 11.5 mph - N/A   Clear
7:53 PM 84.9 °F 90.1 °F 71.1 °F 63% 30.09 in 10.0 mi SE 11.5 mph - N/A   Clear
8:53 PM 82.9 °F 88.8 °F 73.0 °F 72% 30.11 in 10.0 mi SSE 5.8 mph - N/A   Clear
9:53 PM 82.0 °F 87.9 °F 73.9 °F 76% 30.13 in 10.0 mi SSE 5.8 mph - N/A   Clear
10:53 PM 81.0 °F 86.2 °F 73.9 °F 79% 30.13 in 10.0 mi South 4.6 mph - N/A   Clear
11:53 PM 81.0 °F 86.2 °F 73.9 °F 79% 30.14 in 10.0 mi South 5.8 mph - N/A   Partly Cloudy